Погода в Найстенъярви

Россия / Республика Карелия     62°18′12″N   32°40′47″E
темп.,
°C
ветер,
м/с
пор.,
м/с
влажн.,
%
обл.,
%
осадки,
мм/ч
давл.,
гПа
погр.,
м
17 сентября, пт
пт1700:00+5с2579100 0.0 1023170
03:00+3с268610 0.0 1024290
06:000ссз26955 0.0 1024134
09:00+4ссз378130 0.0 1024313
12:00+8ссв4672100 0.0 1024949
15:00+9ссв467558 0.1 1024877
18:00+7ссв368488 0.3 1025340
21:00+6ссв3993100 0.4 1026417
18 сентября, сб
сб1800:00+4ссв269712 0.1 1028171
03:00+2ссв249813 0.1 102988
06:00+1св269621 0.0 1030125
09:00+5св2582100 0.0 1030223
12:00+6св2476100 0.0 1030554
15:00+6всв3361100 0.0 1030896
18:00+6всв2563100 0.0 1030348
21:00+5в2563100 0.0 1031193
19 сентября, вс
вс1900:00+5всв2470100 0.0 1031102
03:00+4всв2474100 0.0 1031137
06:00+4св2475100 0.0 1032128
09:00+6всв2767100 0.0 1033420
12:00+7в4552100 0.0 10331629
15:00+8всв3652100 0.0 10321636
18:00+7св3767100 0.0 1032496
21:00+3всв3108062 0.1 1033293
20 сентября, пн
пн2000:00+2в3117639 0.0 1034445
03:00+4в4863100 0.0 10341067
06:00+4в486499 0.0 10341038
09:00+5в3864100 0.0 10341245
12:00+7в5855100 0.0 10341444
15:00+9в464967 0.0 10321527
18:00+7в36635 0.0 1032267
21:00+2всв28837 0.0 1032167
21 сентября, вт
вт2100:00+1всв288899 0.0 1031145
03:00+1всв27945 0.0 1031143
06:000всв389712 0.0 1030192
09:00+4всв397943 0.0 1028409
12:00+8в46595 0.0 10271016
15:00+9в465012 0.0 10251107
18:00+7в376526 0.0 1024326
21:00+3всв3108444 0.0 1024201